Weather History for Eindhoven, Netherlands

Change the Weather History Date:

Monday, February 18, 2013

  Actual Average Record
Temperature  
Mean Temperature 33 °F -  
Max Temperature 44 °F 47 °F 55 °F (1998)
Min Temperature 22 °F 34 °F 17 °F (2003)
Degree Days  
Heating Degree Days 32    
Moisture  
Dew Point 29 °F    
Average Humidity 88    
Maximum Humidity 100    
Minimum Humidity 44    
Precipitation  
Precipitation 0.00 in - - ()
Sea Level Pressure  
Sea Level Pressure 30.16 in    
Wind  
Wind Speed 3 mph ()    
Max Wind Speed 7 mph    
Max Gust Speed -    
Visibility 3.8 miles    
Events Fog    
Averages and records for this station are not official NWS values.
T = Trace of Precipitation, MM = Missing Value Source: Averaged Metar Reports

Daily Weather History Graph

Daily Weather History Graph

Search for Another Location

Airport:

Trip Planner

Search our weather history database for the weather conditions in past years. The results will help you decide how hot, cold, wet, or windy it might be!

Date:

Astronomy

Feb. 18, 2013 Rise Set
Actual Time 7:46 AM CET 5:59 PM CET
Civil Twilight 7:12 AM CET 6:33 PM CET
Nautical Twilight 6:33 AM CET 7:12 PM CET
Astronomical Twilight 5:54 AM CET 7:51 PM CET
Moon 11:14 AM CET (2/18) 2:30 AM CET (2/18)
Length of Visible Light 11h 21m
Length of Day
10h 13m
First Quarter, 56% of the Moon is Illuminated
Feb 18
First Quarter
Feb 25
Full
Mar 4
Last Quarter
Mar 11
New
Mar 19
First Quarter

Hourly Weather History & Observations

Time (CET) Temp. Windchill Dew Point Humidity Pressure Visibility Wind Dir Wind Speed Gust Speed Precip Events Conditions
12:25 AM 33.8 °F 30.8 °F 32.0 °F 93% 30.18 in 1.3 mi ENE 3.5 mph - N/A   Mist
12:39 AM 32.0 °F 28.7 °F 32.0 °F 100% 30.18 in 0.9 mi NNE 3.5 mph - N/A   Partly Cloudy
12:45 AM 32.0 °F 28.7 °F 30.2 °F 93% 30.18 in 1.0 mi NE 3.5 mph - N/A   Scattered Clouds
12:55 AM 30.2 °F 26.7 °F 30.2 °F 100% 30.18 in 1.3 mi ENE 3.5 mph - N/A   Partly Cloudy
1:00 AM 31 °F - 31 °F 99% 30.20 in 1 mi NE 2.2 mph - -   Mist
1:13 AM 30.2 °F - 30.2 °F 100% 30.18 in 0.9 mi NE 2.3 mph - N/A   Partly Cloudy
1:20 AM 30.2 °F - 30.2 °F 100% 30.18 in 0.4 mi NE 2.3 mph - N/A Fog Light Freezing Fog
1:25 AM 30.2 °F - 30.2 °F 100% 30.18 in 0.4 mi ENE 2.3 mph - N/A Fog Light Freezing Fog
1:55 AM 28.4 °F - 28.4 °F 100% 30.18 in 0.1 mi East 1.2 mph - N/A Fog Light Freezing Fog
2:25 AM 28.4 °F 24.6 °F 28.4 °F 100% 30.18 in 0.2 mi NNE 3.5 mph - N/A Fog Light Freezing Fog
2:55 AM 26.6 °F - 26.6 °F 100% 30.18 in 0.2 mi NE 2.3 mph - N/A Fog Light Freezing Fog
3:12 AM 26.6 °F - 26.6 °F 100% 30.18 in 0.2 mi East 2.3 mph - N/A Fog Light Freezing Fog
3:25 AM 26.6 °F - 26.6 °F 100% 30.18 in 0.1 mi East 2.3 mph - N/A Fog Light Freezing Fog
3:50 AM 26.6 °F - 26.6 °F 100% 30.18 in 0.1 mi NE 2.3 mph - N/A Fog Light Freezing Fog
3:55 AM 26.6 °F - 26.6 °F 100% 30.18 in 0.1 mi NE 2.3 mph - N/A Fog Light Freezing Fog
4:00 AM 26 °F - 26 °F 98% 30.19 in 0 mi NE 2.2 mph - - Fog Fog
4:25 AM 26.6 °F - 26.6 °F 100% 30.18 in 0.1 mi NNE 1.2 mph - N/A Fog Light Freezing Fog
4:55 AM 26.6 °F - 26.6 °F 100% 30.15 in 0.1 mi NNE 2.3 mph - N/A Fog Light Freezing Fog
5:25 AM 23.0 °F - 23.0 °F 100% 30.15 in 0.1 mi NE 1.2 mph - N/A Fog Light Freezing Fog
5:55 AM 23.0 °F - 23.0 °F 100% 30.18 in 0.1 mi NNE 2.3 mph - N/A Fog Light Freezing Fog
6:25 AM 23.0 °F - 23.0 °F 100% 30.18 in 0.1 mi NE 1.2 mph - N/A Fog Light Freezing Fog
6:26 AM 23.0 °F - 23.0 °F 100% 30.18 in 0.1 mi NE 1.2 mph - N/A Fog Light Freezing Fog
6:47 AM 23.0 °F - 23.0 °F 100% 30.18 in 0.1 mi NE 1.2 mph - N/A Fog Light Freezing Fog
6:49 AM 23.0 °F - 23.0 °F 100% 30.18 in 0.1 mi NE 1.2 mph - N/A Fog Light Freezing Fog
6:55 AM 23.0 °F - 23.0 °F 100% 30.18 in 0.1 mi NE 1.2 mph - N/A Fog Light Freezing Fog
7:00 AM 24 °F - 24 °F 100% 30.19 in 0 mi Calm Calm - - Fog Fog
7:25 AM 24.8 °F - 24.8 °F 100% 30.15 in 0.2 mi Calm Calm - N/A Fog Light Freezing Fog
7:46 AM 23.0 °F - 23.0 °F 100% 30.18 in 0.2 mi East 1.2 mph - N/A Fog Light Freezing Fog
7:55 AM 23.0 °F - 23.0 °F 100% 30.18 in 0.2 mi East 1.2 mph - N/A Fog Light Freezing Fog
8:10 AM 24.8 °F - 24.8 °F 100% 30.18 in 0.9 mi ESE 1.2 mph - N/A   Mist
8:14 AM 24.8 °F - 24.8 °F 100% 30.18 in 0.3 mi ESE 1.2 mph - N/A Fog Light Freezing Fog
8:19 AM 26.6 °F - 26.6 °F 100% 30.18 in 0.6 mi ESE 2.3 mph - N/A   Mist
8:20 AM 26.6 °F - 26.6 °F 100% 30.18 in 1.4 mi ESE 2.3 mph - N/A   Mist
8:25 AM 26.6 °F - 26.6 °F 100% 30.18 in 1.3 mi ESE 2.3 mph - N/A   Mist
8:29 AM 26.6 °F - 26.6 °F 100% 30.18 in - ESE 2.3 mph - N/A   Mist
8:35 AM 26.6 °F - 26.6 °F 100% 30.18 in 3.7 mi ESE 2.3 mph - N/A   Mist
8:40 AM 26.6 °F - 26.6 °F 100% 30.18 in 3.1 mi ESE 2.3 mph - N/A   Mist
8:51 AM 28.4 °F - 28.4 °F 100% 30.18 in - East 2.3 mph - N/A   Partly Cloudy
8:55 AM 30.2 °F - 30.2 °F 100% 30.18 in - East 2.3 mph - N/A   Partly Cloudy
9:02 AM 32.0 °F - 32.0 °F 100% 30.18 in 3.1 mi ESE 2.3 mph - N/A   Partly Cloudy
9:16 AM 32.0 °F 28.7 °F 32.0 °F 100% 30.18 in 4.3 mi ESE 3.5 mph - N/A   Partly Cloudy
9:25 AM 33.8 °F 30.8 °F 33.8 °F 100% 30.18 in 4.3 mi SE 3.5 mph - N/A   Partly Cloudy
9:32 AM 33.8 °F 29.6 °F 33.8 °F 100% 30.18 in 5.0 mi SE 4.6 mph - N/A   Mist
9:36 AM 33.8 °F 29.6 °F 33.8 °F 100% 30.18 in 4.3 mi SE 4.6 mph - N/A   Partly Cloudy
9:40 AM 33.8 °F 29.6 °F 33.8 °F 100% 30.18 in 5.0 mi SE 4.6 mph - N/A   Partly Cloudy
9:55 AM 35.6 °F 32.8 °F 33.8 °F 93% 30.18 in 6.2 mi SE 3.5 mph - N/A   Unknown
9:59 AM 35.6 °F 31.7 °F 33.8 °F 93% 30.18 in 6.2 mi SE 4.6 mph - N/A   Unknown
10:00 AM 36 °F - 33 °F 82% 30.21 in 7 mi SE 6.7 mph - -   Partly Cloudy
10:25 AM 37.4 °F 32.8 °F 32.0 °F 81% 30.18 in 6.2 mi SE 5.8 mph - N/A   Unknown
10:55 AM 37.4 °F 32.1 °F 32.0 °F 81% 30.18 in 6.2 mi SE 6.9 mph - N/A   Unknown
11:25 AM 39.2 °F 35.9 °F 32.0 °F 75% 30.18 in 6.2 mi ESE 4.6 mph - N/A   Unknown
11:30 AM 39.2 °F 37.0 °F 32.0 °F 75% 30.18 in 6.2 mi ESE 3.5 mph - N/A   Partly Cloudy
11:55 AM 41.0 °F 38.0 °F 32.0 °F 70% 30.18 in 6.2 mi ESE 4.6 mph - N/A   Unknown
12:25 PM 42.8 °F 40.1 °F 33.8 °F 70% 30.18 in 6.2 mi SE 4.6 mph - N/A   Unknown
12:55 PM 42.8 °F 38.6 °F 28.4 °F 57% 30.18 in 6.2 mi SE 6.9 mph - N/A   Unknown
1:00 PM 43 °F - 29 °F 46% 30.19 in 19 mi ESE 4.5 mph - -   Partly Cloudy
1:25 PM 42.8 °F 39.3 °F 30.2 °F 61% 30.18 in 6.2 mi SE 5.8 mph - N/A   Partly Cloudy
1:55 PM 42.8 °F 39.3 °F 28.4 °F 57% 30.15 in 6.2 mi East 5.8 mph - N/A   Unknown
2:25 PM 42.8 °F 40.1 °F 28.4 °F 57% 30.15 in 6.2 mi East 4.6 mph - N/A   Unknown
2:55 PM 42.8 °F 41.1 °F 28.4 °F 57% 30.15 in 6.2 mi East 3.5 mph - N/A   Scattered Clouds
3:11 PM 44.6 °F 43.1 °F 28.4 °F 53% 30.15 in 6.2 mi ESE 3.5 mph - N/A   Partly Cloudy
3:25 PM 44.6 °F 42.2 °F 30.2 °F 57% 30.15 in 6.2 mi SE 4.6 mph - N/A   Partly Cloudy
3:55 PM 44.6 °F 42.2 °F 30.2 °F 57% 30.15 in 6.2 mi ESE 4.6 mph - N/A   Unknown
4:00 PM 44 °F - 29 °F 44% 30.16 in 16 mi ESE 4.5 mph - -  
4:25 PM 42.8 °F 39.3 °F 30.2 °F 61% 30.15 in 6.2 mi East 5.8 mph - N/A   Partly Cloudy
4:55 PM 42.8 °F 40.1 °F 28.4 °F 57% 30.15 in 6.2 mi ENE 4.6 mph - N/A   Unknown
5:25 PM 41.0 °F 38.0 °F 28.4 °F 61% 30.15 in 6.2 mi ENE 4.6 mph - N/A   Unknown
5:55 PM 41.0 °F 38.0 °F 28.4 °F 61% 30.15 in 6.2 mi ENE 4.6 mph - N/A   Scattered Clouds
6:25 PM 39.2 °F 37.0 °F 30.2 °F 70% 30.15 in 6.2 mi East 3.5 mph - N/A   Mostly Cloudy
6:55 PM 39.2 °F 37.0 °F 30.2 °F 70% 30.15 in 6.2 mi East 3.5 mph - N/A   Partly Cloudy
7:00 PM 37 °F - 29 °F 62% 30.16 in 9 mi East 2.2 mph - -   Partly Cloudy
7:01 PM 37.4 °F - 28.4 °F 70% 30.15 in 6.2 mi East 2.3 mph - N/A   Partly Cloudy
7:25 PM 35.6 °F - 30.2 °F 81% 30.15 in 6.2 mi ESE 2.3 mph - N/A   Unknown
7:55 PM 33.8 °F - 30.2 °F 87% 30.12 in 6.2 mi SE 1.2 mph - N/A   Unknown
8:25 PM 32.0 °F - 28.4 °F 87% 30.12 in 6.2 mi SW 1.2 mph - N/A   Mostly Cloudy
8:55 PM 32.0 °F - 30.2 °F 93% 30.12 in 5.6 mi SW 1.2 mph - N/A   Partly Cloudy
9:25 PM 32.0 °F - 30.2 °F 93% 30.12 in 5.0 mi SW 2.3 mph - N/A   Mostly Cloudy
9:44 PM 32.0 °F - 30.2 °F 93% 30.15 in 5.6 mi WSW 1.2 mph - N/A   Scattered Clouds
9:55 PM 32.0 °F - 30.2 °F 93% 30.12 in 5.0 mi WSW 1.2 mph - N/A   Scattered Clouds
10:00 PM 31 °F - 29 °F 92% 30.15 in 5 mi WSW 2.2 mph - -   Mist
10:02 PM 30.2 °F - 30.2 °F 100% 30.12 in 4.3 mi WSW 1.2 mph - N/A   Partly Cloudy
10:09 PM 30.2 °F - 30.2 °F 100% 30.12 in 4.3 mi WSW 1.2 mph - N/A   Partly Cloudy
10:25 PM 30.2 °F - 28.4 °F 93% 30.12 in 4.3 mi SW 2.3 mph - N/A   Scattered Clouds
10:50 PM 30.2 °F - 28.4 °F 93% 30.12 in 5.0 mi SW 2.3 mph - N/A   Partly Cloudy
10:55 PM 30.2 °F - 28.4 °F 93% 30.12 in 4.3 mi SW 2.3 mph - N/A   Partly Cloudy
11:01 PM 30.2 °F - 28.4 °F 93% 30.12 in 5.0 mi SW 2.3 mph - N/A   Partly Cloudy
11:02 PM 30.2 °F - 28.4 °F 93% 30.12 in 4.3 mi SW 2.3 mph - N/A   Partly Cloudy
11:16 PM 30.2 °F - 28.4 °F 93% 30.12 in 3.7 mi WSW 2.3 mph - N/A   Partly Cloudy
11:21 PM 30.2 °F - 28.4 °F 93% 30.12 in 5.0 mi WSW 2.3 mph - N/A   Partly Cloudy
11:25 PM 30.2 °F - 28.4 °F 93% 30.12 in 4.3 mi WSW 2.3 mph - N/A   Scattered Clouds
11:55 PM 30.2 °F - 28.4 °F 93% 30.12 in 3.1 mi SW 2.3 mph - N/A   Mostly Cloudy